NE034 LLBG-LHBP

Flight info

Callsign NE034
Flight time N/A
Altitude 32000
Route SUVAS N128 OTHON UN128 PEREN UL863 EVIVI L863 OKANA DCT ESIRI DCT PARAK DCT KEZAL
Aircraft B736/M-SDE2E3FGHIRWXY/LB1

Departure

Time 2026-05-06 07:09
Airport Ben Gurion International Airport (LLBG)

Arrival

Time N/A
Airport Budapest Liszt Ferenc International Airport (LHBP)
Time Latitude Longitude Altitude Speed Heading
2026-05-06 06:41 32.00590 34.87353 119 ft 0 kts 182°
2026-05-06 06:56 32.00610 34.87353 114 ft 3 kts 182°
2026-05-06 06:57 32.00630 34.87353 115 ft 3 kts 157°
2026-05-06 06:57 32.00646 34.87338 114 ft 3 kts 114°
2026-05-06 06:57 32.00649 34.87315 115 ft 3 kts 82°
2026-05-06 06:57 32.00646 34.87291 116 ft 3 kts 82°
2026-05-06 06:58 32.00643 34.87267 115 ft 3 kts 64°
2026-05-06 06:58 32.00630 34.87248 117 ft 3 kts 42°
2026-05-06 06:58 32.00624 34.87242 115 ft 0 kts 42°
2026-05-06 07:00 32.00633 34.87258 116 ft 8 kts 64°
2026-05-06 07:00 32.00659 34.87338 118 ft 11 kts 44°
2026-05-06 07:01 32.00714 34.87396 118 ft 11 kts 71°
2026-05-06 07:01 32.00688 34.87474 116 ft 10 kts 123°
2026-05-06 07:01 32.00655 34.87548 118 ft 10 kts 116°
2026-05-06 07:01 32.00626 34.87621 119 ft 10 kts 111°
2026-05-06 07:02 32.00597 34.87690 115 ft 10 kts 138°
2026-05-06 07:02 32.00553 34.87748 118 ft 9 kts 124°
2026-05-06 07:02 32.00519 34.87815 116 ft 10 kts 109°
2026-05-06 07:02 32.00544 34.87885 117 ft 10 kts 36°
2026-05-06 07:03 32.00600 34.87933 116 ft 10 kts 34°
2026-05-06 07:03 32.00655 34.87976 118 ft 9 kts 33°
2026-05-06 07:03 32.00710 34.88017 118 ft 9 kts 29°
2026-05-06 07:03 32.00766 34.88054 119 ft 10 kts 30°
2026-05-06 07:04 32.00833 34.88099 119 ft 13 kts 28°
2026-05-06 07:04 32.00916 34.88164 119 ft 16 kts 35°
2026-05-06 07:04 32.01016 34.88243 116 ft 19 kts 28°
2026-05-06 07:04 32.01138 34.88317 119 ft 21 kts 26°
2026-05-06 07:05 32.01259 34.88406 118 ft 20 kts 36°
2026-05-06 07:05 32.01361 34.88515 117 ft 20 kts 49°
2026-05-06 07:05 32.01436 34.88644 119 ft 19 kts 62°
2026-05-06 07:05 32.01483 34.88787 117 ft 18 kts 69°
2026-05-06 07:06 32.01511 34.88928 119 ft 18 kts 81°
2026-05-06 07:06 32.01531 34.89070 119 ft 17 kts 83°
2026-05-06 07:06 32.01590 34.89164 119 ft 14 kts 359°
2026-05-06 07:06 32.01626 34.89159 117 ft 0 kts 353°
2026-05-06 07:08 32.01643 34.89156 116 ft 9 kts 352°
2026-05-06 07:08 32.01728 34.89098 117 ft 22 kts 289°
2026-05-06 07:08 32.01696 34.88770 120 ft 70 kts 260°
2026-05-06 07:08 32.01556 34.87848 117 ft 156 kts 259°
2026-05-06 07:09 32.01335 34.86448 707 ft 168 kts 257°
2026-05-06 07:09 32.01144 34.85176 1658 ft 153 kts 256°
2026-05-06 07:09 32.00891 34.83909 1970 ft 172 kts 255°
2026-05-06 07:09 32.00577 34.82411 2066 ft 201 kts 255°
2026-05-06 07:10 32.00228 34.80760 2406 ft 212 kts 256°
2026-05-06 07:10 31.99870 34.79060 2936 ft 215 kts 256°
2026-05-06 07:10 31.99506 34.77333 3472 ft 217 kts 256°
2026-05-06 07:10 31.99184 34.75536 3816 ft 233 kts 268°
2026-05-06 07:11 31.99471 34.73641 4412 ft 239 kts 287°
2026-05-06 07:11 32.00046 34.71785 5111 ft 242 kts 289°
2026-05-06 07:11 32.00650 34.69930 6081 ft 245 kts 289°
2026-05-06 07:11 32.01206 34.68196 7078 ft 248 kts 289°
2026-05-06 07:12 32.01810 34.66287 8135 ft 250 kts 289°
2026-05-06 07:12 32.02416 34.64355 9190 ft 252 kts 288°
2026-05-06 07:12 32.02795 34.62332 10194 ft 253 kts 274°
2026-05-06 07:12 32.02898 34.60257 11106 ft 255 kts 271°
2026-05-06 07:13 32.02975 34.58155 11996 ft 259 kts 272°
2026-05-06 07:13 32.03069 34.55953 12383 ft 283 kts 272°
2026-05-06 07:13 32.03187 34.53524 12641 ft 309 kts 272°
2026-05-06 07:13 32.03320 34.50950 13299 ft 318 kts 272°
2026-05-06 07:14 32.03458 34.48333 14155 ft 321 kts 272°
2026-05-06 07:14 32.03594 34.45739 14987 ft 322 kts 273°
2026-05-06 07:14 32.03738 34.43072 15829 ft 323 kts 273°
2026-05-06 07:14 32.03887 34.40458 16617 ft 325 kts 274°
2026-05-06 07:15 32.04042 34.37784 17411 ft 327 kts 274°
2026-05-06 07:15 32.04197 34.35096 18190 ft 330 kts 274°
2026-05-06 07:15 32.04353 34.32394 18878 ft 332 kts 274°
2026-05-06 07:15 32.04508 34.29675 19559 ft 333 kts 274°
2026-05-06 07:16 32.04662 34.26948 20212 ft 334 kts 274°
2026-05-06 07:16 32.04861 34.24213 20835 ft 336 kts 279°
2026-05-06 07:16 32.05569 34.21568 21419 ft 341 kts 294°
2026-05-06 07:16 32.06726 34.19119 22041 ft 343 kts 297°
2026-05-06 07:17 32.07979 34.16700 22611 ft 346 kts 298°
2026-05-06 07:17 32.09246 34.14283 23146 ft 348 kts 298°
2026-05-06 07:17 32.10501 34.11871 23668 ft 350 kts 298°
2026-05-06 07:17 32.11769 34.09406 24104 ft 352 kts 297°
2026-05-06 07:18 32.13035 34.06924 24517 ft 354 kts 297°
2026-05-06 07:18 32.14303 34.04427 24916 ft 356 kts 297°
2026-05-06 07:18 32.15579 34.01907 25312 ft 358 kts 297°
2026-05-06 07:18 32.16862 33.99377 25698 ft 360 kts 298°
2026-05-06 07:19 32.18244 33.96890 26081 ft 364 kts 300°
2026-05-06 07:19 32.19710 33.94441 26472 ft 366 kts 301°
2026-05-06 07:19 32.21203 33.92002 26924 ft 366 kts 301°
2026-05-06 07:19 32.22692 33.89581 27461 ft 364 kts 301°
2026-05-06 07:20 32.24171 33.87167 28019 ft 361 kts 301°
2026-05-06 07:20 32.25634 33.84766 28565 ft 359 kts 301°
2026-05-06 07:20 32.27091 33.82363 29100 ft 358 kts 301°
2026-05-06 07:20 32.28536 33.79971 29670 ft 356 kts 300°
2026-05-06 07:21 32.29944 33.77634 30180 ft 353 kts 300°
2026-05-06 07:21 32.31370 33.75264 30466 ft 354 kts 300°
2026-05-06 07:21 32.32800 33.72882 30704 ft 355 kts 300°
2026-05-06 07:21 32.34228 33.70501 31008 ft 355 kts 300°
2026-05-06 07:22 32.35173 33.68923 31224 ft 354 kts 300°
2026-05-06 07:22 32.36596 33.66549 31536 ft 354 kts 300°
2026-05-06 07:22 32.38020 33.64169 31810 ft 355 kts 301°
2026-05-06 07:22 32.39445 33.61789 32091 ft 355 kts 301°
2026-05-06 07:23 32.40885 33.59380 32082 ft 360 kts 301°
2026-05-06 07:23 32.43813 33.54473 32135 ft 372 kts 301°
2026-05-06 07:24 32.46867 33.49347 32120 ft 389 kts 301°
2026-05-06 07:24 32.50046 33.44010 32115 ft 403 kts 301°
2026-05-06 07:25 32.53327 33.38499 32111 ft 415 kts 301°
2026-05-06 07:25 32.56668 33.32879 32113 ft 424 kts 301°
2026-05-06 07:26 32.60068 33.27153 32094 ft 424 kts 302°
2026-05-06 07:26 32.63463 33.21426 32097 ft 423 kts 302°
2026-05-06 07:27 32.66839 33.15719 32102 ft 422 kts 302°
2026-05-06 07:27 32.70188 33.10048 32098 ft 421 kts 302°
2026-05-06 07:28 32.73546 33.04351 32097 ft 420 kts 302°
2026-05-06 07:28 32.78575 32.95806 32102 ft 420 kts 302°
2026-05-06 07:29 32.81918 32.90113 32099 ft 419 kts 302°
2026-05-06 07:29 32.85231 32.84464 32100 ft 419 kts 302°
2026-05-06 07:30 32.88432 32.78997 32103 ft 419 kts 302°
2026-05-06 07:30 32.91757 32.73312 32095 ft 418 kts 302°
2026-05-06 07:31 32.95081 32.67619 32097 ft 418 kts 302°
2026-05-06 07:31 32.98398 32.61930 32097 ft 418 kts 302°
2026-05-06 07:32 33.01710 32.56240 32097 ft 418 kts 302°
2026-05-06 07:32 33.05019 32.50546 32098 ft 417 kts 302°
2026-05-06 07:33 33.08320 32.44857 32095 ft 417 kts 302°
2026-05-06 07:33 33.11597 32.39200 32096 ft 417 kts 302°
2026-05-06 07:34 33.14917 32.33462 32096 ft 417 kts 302°
2026-05-06 07:34 33.18186 32.27803 32097 ft 417 kts 302°
2026-05-06 07:35 33.21475 32.22099 32092 ft 417 kts 302°
2026-05-06 07:35 33.24759 32.16396 32092 ft 417 kts 302°
2026-05-06 07:36 33.28044 32.10683 32092 ft 417 kts 302°
2026-05-06 07:36 33.31326 32.04965 32091 ft 417 kts 302°
2026-05-06 07:37 33.34603 31.99249 32092 ft 417 kts 302°
2026-05-06 07:37 33.37879 31.93527 32095 ft 416 kts 302°
2026-05-06 07:38 33.41128 31.87841 32090 ft 416 kts 302°
2026-05-06 07:38 33.44398 31.82111 32091 ft 416 kts 302°
2026-05-06 07:39 33.47662 31.76381 32093 ft 416 kts 302°
2026-05-06 07:39 33.50919 31.70655 32088 ft 416 kts 302°
2026-05-06 07:40 33.54173 31.64929 32090 ft 416 kts 302°
2026-05-06 07:40 33.57405 31.59234 32088 ft 416 kts 302°
2026-05-06 07:41 33.60659 31.53493 32091 ft 415 kts 302°
2026-05-06 07:41 33.63902 31.47761 32091 ft 415 kts 302°
2026-05-06 07:42 33.67148 31.42013 32092 ft 415 kts 302°
2026-05-06 07:42 33.70393 31.36261 32088 ft 415 kts 302°
2026-05-06 07:43 33.73625 31.30521 32090 ft 415 kts 302°
2026-05-06 07:43 33.76833 31.24813 32090 ft 415 kts 302°
2026-05-06 07:44 33.80062 31.19062 32086 ft 415 kts 302°
2026-05-06 07:44 33.83286 31.13311 32089 ft 415 kts 302°
2026-05-06 07:45 33.86507 31.07555 32086 ft 415 kts 302°
2026-05-06 07:45 33.89724 31.01799 32082 ft 415 kts 302°
2026-05-06 07:46 33.92939 30.96037 32088 ft 415 kts 302°
2026-05-06 07:46 33.96153 30.90264 32081 ft 415 kts 302°
2026-05-06 07:47 33.99365 30.84476 32083 ft 415 kts 302°
2026-05-06 07:47 34.02568 30.78697 32085 ft 415 kts 302°
2026-05-06 07:48 34.05756 30.72938 32082 ft 415 kts 302°
2026-05-06 07:48 34.08960 30.67141 32085 ft 415 kts 302°
2026-05-06 07:49 34.12161 30.61342 32082 ft 415 kts 302°
2026-05-06 07:49 34.15367 30.55527 32081 ft 415 kts 302°
2026-05-06 07:50 34.18560 30.49722 32083 ft 415 kts 302°
2026-05-06 07:50 34.21755 30.43905 32085 ft 415 kts 302°
2026-05-06 07:51 34.24928 30.38118 32083 ft 415 kts 302°
2026-05-06 07:51 34.28815 30.32872 32081 ft 420 kts 317°
2026-05-06 07:52 34.33470 30.28667 32083 ft 421 kts 320°
2026-05-06 07:52 34.38178 30.24446 32080 ft 421 kts 320°
2026-05-06 07:53 34.42870 30.20205 32079 ft 421 kts 320°
2026-05-06 07:53 34.47559 30.15947 32075 ft 421 kts 320°
2026-05-06 07:54 34.52235 30.11689 32077 ft 421 kts 320°
2026-05-06 07:54 34.56909 30.07425 32076 ft 420 kts 320°
2026-05-06 07:55 34.61584 30.03152 32075 ft 420 kts 320°
2026-05-06 07:55 34.66225 29.98906 32074 ft 420 kts 320°
2026-05-06 07:56 34.70894 29.94628 32075 ft 420 kts 320°
2026-05-06 07:56 34.75566 29.90343 32074 ft 420 kts 320°
2026-05-06 07:57 34.80234 29.86053 32075 ft 420 kts 320°
2026-05-06 07:57 34.84901 29.81759 32072 ft 421 kts 320°
2026-05-06 07:58 34.89573 29.77453 32074 ft 421 kts 320°
2026-05-06 07:58 34.94243 29.73143 32075 ft 421 kts 320°
2026-05-06 07:59 34.98886 29.68852 32073 ft 421 kts 320°
2026-05-06 07:59 35.03557 29.64531 32074 ft 421 kts 320°
2026-05-06 08:00 35.08224 29.60207 32076 ft 421 kts 320°
2026-05-06 08:00 35.12896 29.55870 32069 ft 422 kts 320°
2026-05-06 08:01 35.17565 29.51529 32067 ft 422 kts 320°
2026-05-06 08:01 35.22238 29.47178 32074 ft 422 kts 320°
2026-05-06 08:02 35.26917 29.42816 32072 ft 423 kts 320°
2026-05-06 08:02 35.31597 29.38445 32069 ft 423 kts 320°
2026-05-06 08:03 35.36287 29.34059 32076 ft 424 kts 320°
2026-05-06 08:03 35.40945 29.29697 32070 ft 424 kts 320°
2026-05-06 08:04 35.45632 29.25300 32070 ft 424 kts 320°
2026-05-06 08:04 35.50331 29.20885 32067 ft 425 kts 320°
2026-05-06 08:05 35.55027 29.16469 32070 ft 425 kts 320°
2026-05-06 08:05 35.59720 29.12047 32070 ft 425 kts 320°
2026-05-06 08:06 35.64414 29.07618 32070 ft 425 kts 320°
2026-05-06 08:06 35.68940 29.03341 32074 ft 426 kts 320°
2026-05-06 08:07 35.73638 28.98894 32070 ft 426 kts 320°
2026-05-06 08:07 35.78338 28.94439 32069 ft 426 kts 321°
2026-05-06 08:08 35.83010 28.90003 32071 ft 426 kts 321°
2026-05-06 08:08 35.87710 28.85534 32070 ft 426 kts 321°
2026-05-06 08:09 35.92406 28.81063 32069 ft 426 kts 321°
2026-05-06 08:09 35.97102 28.76584 32068 ft 426 kts 321°
2026-05-06 08:10 36.01797 28.72099 32068 ft 426 kts 321°
2026-05-06 08:10 36.05697 28.68368 32065 ft 426 kts 321°
2026-05-06 08:11 36.10384 28.63879 32063 ft 426 kts 321°
2026-05-06 08:11 36.15067 28.59385 32063 ft 426 kts 321°
2026-05-06 08:12 36.19748 28.54886 32058 ft 426 kts 321°
2026-05-06 08:12 36.24427 28.50382 32058 ft 426 kts 321°
2026-05-06 08:13 36.29099 28.45878 32054 ft 425 kts 321°
2026-05-06 08:13 36.33771 28.41367 32053 ft 425 kts 321°
2026-05-06 08:14 36.38436 28.36856 32053 ft 425 kts 321°
2026-05-06 08:14 36.43068 28.32371 32052 ft 425 kts 321°
2026-05-06 08:15 36.47732 28.27847 32051 ft 425 kts 321°
2026-05-06 08:15 36.52386 28.23325 32053 ft 425 kts 321°
2026-05-06 08:16 36.57041 28.18796 32053 ft 425 kts 321°
2026-05-06 08:16 36.61699 28.14257 32056 ft 425 kts 321°
2026-05-06 08:17 36.66161 28.09902 32066 ft 425 kts 321°
2026-05-06 08:17 36.70822 28.05345 32063 ft 425 kts 321°
2026-05-06 08:18 36.75477 28.00787 32069 ft 425 kts 321°
2026-05-06 08:18 36.80125 27.96229 32078 ft 425 kts 321°
2026-05-06 08:19 36.84778 27.91660 32076 ft 425 kts 321°
2026-05-06 08:19 36.89420 27.87093 32083 ft 425 kts 321°
2026-05-06 08:20 36.94060 27.82520 32086 ft 425 kts 321°
2026-05-06 08:20 36.98697 27.77944 32091 ft 425 kts 321°
2026-05-06 08:21 37.03333 27.73361 32090 ft 425 kts 321°
2026-05-06 08:21 37.07970 27.68770 32106 ft 425 kts 321°
2026-05-06 08:22 37.12581 27.64198 32100 ft 425 kts 321°
2026-05-06 08:22 37.17220 27.59590 32106 ft 425 kts 321°
2026-05-06 08:23 37.21856 27.54978 32104 ft 425 kts 321°
2026-05-06 08:23 37.26485 27.50364 32106 ft 425 kts 321°
2026-05-06 08:24 37.30958 27.45900 32106 ft 425 kts 321°
2026-05-06 08:24 37.35594 27.41267 32108 ft 425 kts 321°
2026-05-06 08:25 37.40194 27.36661 32107 ft 425 kts 321°
2026-05-06 08:25 37.44827 27.32014 32106 ft 425 kts 321°
2026-05-06 08:26 37.49453 27.27368 32109 ft 426 kts 321°
2026-05-06 08:26 37.54084 27.22708 32104 ft 426 kts 321°
2026-05-06 08:27 37.58714 27.18042 32102 ft 426 kts 321°
2026-05-06 08:27 37.63339 27.13373 32105 ft 426 kts 321°
2026-05-06 08:28 37.67957 27.08704 32114 ft 426 kts 321°
2026-05-06 08:28 37.72582 27.04020 32105 ft 426 kts 321°
2026-05-06 08:29 37.77201 26.99334 32101 ft 426 kts 321°
2026-05-06 08:29 37.81820 26.94641 32100 ft 426 kts 321°
2026-05-06 08:30 37.86403 26.89977 32107 ft 425 kts 321°
2026-05-06 08:30 37.91011 26.85279 32107 ft 425 kts 321°
2026-05-06 08:31 37.95620 26.80571 32108 ft 425 kts 321°
2026-05-06 08:31 38.00216 26.75869 32108 ft 425 kts 321°
2026-05-06 08:32 38.04810 26.71161 32110 ft 425 kts 321°
2026-05-06 08:32 38.09406 26.66443 32107 ft 424 kts 321°
2026-05-06 08:33 38.13996 26.61725 32105 ft 424 kts 321°
2026-05-06 08:33 38.18585 26.57000 32111 ft 424 kts 321°
2026-05-06 08:34 38.25460 26.49905 32111 ft 425 kts 321°
2026-05-06 08:35 38.30045 26.45164 32109 ft 424 kts 321°
2026-05-06 08:35 38.34630 26.40415 32105 ft 425 kts 321°
2026-05-06 08:36 38.39178 26.35696 32105 ft 424 kts 321°
2026-05-06 08:36 38.43756 26.30939 32103 ft 424 kts 321°
2026-05-06 08:37 38.48325 26.26182 32103 ft 424 kts 321°
2026-05-06 08:37 38.52728 26.21591 32102 ft 423 kts 321°
2026-05-06 08:38 38.57297 26.16819 32102 ft 423 kts 321°
2026-05-06 08:38 38.61857 26.12047 32105 ft 423 kts 321°
2026-05-06 08:39 38.66413 26.07272 32102 ft 423 kts 321°
2026-05-06 08:39 38.70961 26.02497 32104 ft 423 kts 321°
2026-05-06 08:40 38.75499 25.97725 32098 ft 422 kts 321°
2026-05-06 08:40 38.80033 25.92949 32101 ft 422 kts 321°
2026-05-06 08:41 38.84569 25.88163 32103 ft 421 kts 321°
2026-05-06 08:41 38.89094 25.83379 32100 ft 421 kts 321°
2026-05-06 08:42 38.93613 25.78595 32100 ft 421 kts 321°
2026-05-06 08:42 38.98104 25.73832 32103 ft 420 kts 321°
2026-05-06 08:43 39.02625 25.69029 32105 ft 420 kts 321°
2026-05-06 08:43 39.07127 25.64237 32105 ft 420 kts 321°
2026-05-06 08:44 39.11630 25.59437 32100 ft 420 kts 321°
2026-05-06 08:44 39.16101 25.54662 32100 ft 420 kts 321°
2026-05-06 08:45 39.20595 25.49855 32101 ft 420 kts 321°
2026-05-06 08:45 39.25086 25.45043 32102 ft 419 kts 321°
2026-05-06 08:46 39.29578 25.40222 32101 ft 419 kts 321°
2026-05-06 08:46 39.34056 25.35407 32103 ft 419 kts 321°
2026-05-06 08:47 39.38405 25.30724 32097 ft 419 kts 321°
2026-05-06 08:47 39.42856 25.25921 32097 ft 419 kts 321°
2026-05-06 08:48 39.47329 25.21086 32097 ft 419 kts 321°
2026-05-06 08:48 39.51806 25.16239 32098 ft 419 kts 321°
2026-05-06 08:49 39.56244 25.11425 32094 ft 419 kts 321°
2026-05-06 08:49 39.60716 25.06567 32094 ft 419 kts 321°
2026-05-06 08:50 39.65179 25.01709 32090 ft 419 kts 321°
2026-05-06 08:50 39.69642 24.96844 32092 ft 419 kts 321°
2026-05-06 08:51 39.74104 24.91971 32088 ft 419 kts 321°
2026-05-06 08:51 39.78560 24.87096 32090 ft 419 kts 321°
2026-05-06 08:52 39.83019 24.82221 32092 ft 418 kts 322°
2026-05-06 08:52 39.87934 24.78196 32092 ft 418 kts 329°
2026-05-06 08:53 39.92982 24.74412 32092 ft 418 kts 329°
2026-05-06 08:53 39.98024 24.70602 32093 ft 418 kts 329°
2026-05-06 08:54 40.03016 24.66798 32087 ft 419 kts 329°
2026-05-06 08:54 40.08073 24.62927 32091 ft 419 kts 329°
2026-05-06 08:55 40.13069 24.59095 32087 ft 419 kts 329°
2026-05-06 08:55 40.18092 24.55236 32089 ft 419 kts 329°
2026-05-06 08:56 40.23123 24.51364 32092 ft 419 kts 329°
2026-05-06 08:56 40.27332 24.48120 32093 ft 419 kts 329°
2026-05-06 08:57 40.32334 24.44258 32095 ft 419 kts 329°
2026-05-06 08:57 40.37361 24.40369 32089 ft 420 kts 329°
2026-05-06 08:58 40.42394 24.36470 32087 ft 420 kts 329°
2026-05-06 08:58 40.47424 24.32566 32090 ft 420 kts 329°
2026-05-06 08:59 40.52452 24.28658 32086 ft 420 kts 329°
2026-05-06 08:59 40.57480 24.24741 32084 ft 420 kts 329°
2026-05-06 09:00 40.62517 24.20811 32084 ft 420 kts 329°
2026-05-06 09:00 40.67517 24.16903 32083 ft 420 kts 329°
2026-05-06 09:01 40.72544 24.12966 32082 ft 421 kts 329°
2026-05-06 09:01 40.77577 24.09018 32077 ft 421 kts 329°
2026-05-06 09:02 40.82612 24.05062 32082 ft 421 kts 329°
2026-05-06 09:02 40.87644 24.01101 32063 ft 420 kts 329°
2026-05-06 09:03 40.92661 23.97144 32079 ft 421 kts 328°
2026-05-06 09:03 40.97695 23.93166 32079 ft 421 kts 328°
2026-05-06 09:04 41.02693 23.89210 32071 ft 421 kts 328°
2026-05-06 09:04 41.07730 23.85216 32072 ft 422 kts 328°
2026-05-06 09:05 41.12771 23.81210 32064 ft 422 kts 328°
2026-05-06 09:05 41.17808 23.77200 32069 ft 423 kts 328°
2026-05-06 09:06 41.22853 23.73179 32067 ft 423 kts 328°
2026-05-06 09:06 41.27910 23.69140 32065 ft 424 kts 328°
2026-05-06 09:07 41.32964 23.65096 32075 ft 424 kts 328°
2026-05-06 09:07 41.38024 23.61039 32078 ft 425 kts 328°
2026-05-06 09:08 41.43063 23.56993 32077 ft 425 kts 328°
2026-05-06 09:08 41.48128 23.52918 32081 ft 425 kts 328°
2026-05-06 09:09 41.53190 23.48838 32080 ft 425 kts 328°
2026-05-06 09:09 41.58259 23.44744 32072 ft 425 kts 328°
2026-05-06 09:10 41.63316 23.40653 32089 ft 424 kts 328°
2026-05-06 09:10 41.68343 23.36578 32084 ft 425 kts 328°
2026-05-06 09:11 41.73405 23.32468 32090 ft 426 kts 328°
2026-05-06 09:11 41.78482 23.28338 32082 ft 427 kts 328°
2026-05-06 09:12 41.83569 23.24193 32103 ft 428 kts 328°
2026-05-06 09:12 41.88657 23.20037 32093 ft 429 kts 328°
2026-05-06 09:13 41.93755 23.15867 32083 ft 429 kts 328°
2026-05-06 09:13 41.98847 23.11693 32088 ft 429 kts 328°
2026-05-06 09:14 42.03919 23.07529 32084 ft 429 kts 327°
2026-05-06 09:14 42.09015 23.03336 32084 ft 429 kts 327°
2026-05-06 09:15 42.14115 22.99132 32085 ft 429 kts 327°
2026-05-06 09:15 42.19209 22.94926 32098 ft 430 kts 327°
2026-05-06 09:16 42.24317 22.90701 32080 ft 430 kts 327°
2026-05-06 09:16 42.29439 22.86649 32080 ft 431 kts 331°
2026-05-06 09:17 42.34774 22.83067 32072 ft 432 kts 332°
2026-05-06 09:17 42.40176 22.79484 32074 ft 433 kts 332°
2026-05-06 09:18 42.45573 22.75859 32083 ft 433 kts 332°
2026-05-06 09:18 42.50966 22.72214 32077 ft 434 kts 332°
2026-05-06 09:19 42.56372 22.68551 32065 ft 434 kts 332°
2026-05-06 09:19 42.61778 22.64880 32071 ft 434 kts 332°
2026-05-06 09:20 42.67176 22.61203 32071 ft 434 kts 332°
2026-05-06 09:20 42.72587 22.57513 32070 ft 435 kts 332°
2026-05-06 09:21 42.78001 22.53815 32062 ft 435 kts 332°
2026-05-06 09:21 42.83414 22.50110 32069 ft 436 kts 332°
2026-05-06 09:22 42.88835 22.46408 32066 ft 436 kts 332°
2026-05-06 09:22 42.94230 22.42742 32065 ft 436 kts 332°
2026-05-06 09:23 42.99674 22.39039 32068 ft 437 kts 332°
2026-05-06 09:23 43.05120 22.35324 32061 ft 438 kts 332°
2026-05-06 09:24 43.10569 22.31599 32061 ft 438 kts 332°
2026-05-06 09:24 43.16026 22.27860 32057 ft 438 kts 332°
2026-05-06 09:25 43.21476 22.24120 32064 ft 438 kts 332°
2026-05-06 09:25 43.26937 22.20363 32056 ft 440 kts 332°
2026-05-06 09:26 43.32414 22.16587 32053 ft 441 kts 331°
2026-05-06 09:26 43.37866 22.12822 32053 ft 441 kts 331°
2026-05-06 09:27 43.43355 22.09023 32049 ft 441 kts 331°
2026-05-06 09:27 43.48847 22.05215 32048 ft 441 kts 331°
2026-05-06 09:28 43.54338 22.01399 32051 ft 442 kts 331°
2026-05-06 09:28 43.59823 21.97580 32043 ft 442 kts 331°
2026-05-06 09:29 43.65328 21.93738 32045 ft 443 kts 331°
2026-05-06 09:29 43.70823 21.89896 32038 ft 443 kts 331°
2026-05-06 09:30 43.76332 21.86037 32036 ft 444 kts 331°
2026-05-06 09:30 43.81838 21.82171 32035 ft 444 kts 331°
2026-05-06 09:31 43.87315 21.78318 32035 ft 444 kts 331°
2026-05-06 09:31 43.92829 21.74430 32035 ft 444 kts 331°
2026-05-06 09:32 43.98344 21.70534 32040 ft 445 kts 331°
2026-05-06 09:32 44.03873 21.66620 32037 ft 446 kts 331°
2026-05-06 09:33 44.09409 21.62693 32031 ft 447 kts 331°
2026-05-06 09:33 44.14911 21.58782 32033 ft 447 kts 331°
2026-05-06 09:34 44.20446 21.54839 32031 ft 447 kts 331°
2026-05-06 09:34 44.25982 21.50889 32020 ft 447 kts 330°
2026-05-06 09:35 44.31519 21.46928 32026 ft 447 kts 330°
2026-05-06 09:35 44.37052 21.42956 32029 ft 447 kts 330°
2026-05-06 09:36 44.42596 21.38962 32017 ft 448 kts 330°
2026-05-06 09:36 44.48139 21.34965 32023 ft 448 kts 330°
2026-05-06 09:37 44.53689 21.30954 32019 ft 448 kts 330°
2026-05-06 09:37 44.59238 21.26936 32019 ft 449 kts 330°
2026-05-06 09:38 44.64782 21.22914 32013 ft 449 kts 330°
2026-05-06 09:38 44.70288 21.18911 32015 ft 449 kts 330°
2026-05-06 09:39 44.75833 21.14870 32012 ft 449 kts 330°
2026-05-06 09:39 44.81383 21.10817 32014 ft 449 kts 330°
2026-05-06 09:40 44.86933 21.06755 32013 ft 449 kts 330°
2026-05-06 09:40 44.95260 21.00644 32016 ft 450 kts 330°
2026-05-06 09:41 45.00820 20.96552 32015 ft 450 kts 330°
2026-05-06 09:41 45.06370 20.92459 32014 ft 450 kts 330°
2026-05-06 09:42 45.11932 20.88348 32015 ft 451 kts 330°
2026-05-06 09:42 45.16556 20.84922 32012 ft 451 kts 330°
2026-05-06 09:43 45.23024 20.80121 32011 ft 452 kts 329°
2026-05-06 09:43 45.28594 20.75977 32011 ft 452 kts 329°
2026-05-06 09:44 45.33226 20.72523 32007 ft 452 kts 329°